Temp
-9 -9 -9 -9 -9 -8 -8 -8 -8 -8 -8 -9 -9 -9 -8 -8 -8 -9 -8 -8 -8 -8 -8 -8 -9 -9 -9 -9 -9 -9 -8 -8 -8 -8 -8 -9 -8 -9 -9 -8 -9 -9 -9 -9 -9
-9 -9 -9 -9 -9 -9 -9 -9 -9 -9 -9 -9 -9 -9 -9 -9 -9 -9 -8 -8 -9 -9 -9 -9 -8 -9 -9 -9 -9 -9 -8 -8 -9 -9 -9 -9 -9 -9 -8 -9 -9 -9 -9 -9 -9
-10 -10 -10 -10 -9 -9 -9 -9 -9 -9 -9 -9 -9 -9 -9 -9 -9 -9 -10 -10 -10 -9 -10 -9 -9 -8 -9 -9 -9 -10 -8 -9 -9 -9 -10 -9 -9 -9 -9 -9 -10 -9 -10 -9 -9
-10 -10 -10 -10 -10 -10 -10 -10 -10 -10 -10 -10 -10 -9 -9 -9 -9 -10 -9 -10 -10 -10 -11 -10 -9 -9 -9 -9 -9 -9 -9 -9 -9 -9 -9 -9 -9 -9 -9 -10 -10 -9 -9 -9 -9
-10 -10 -10 -10 -10 -10 -10 -11 -11 -10 -10 -11 -10 -10 -10 -9 -9 -10 -10 -10 -10 -10 -10 -10 -9 -9 -9 -9 -9 -9 -9 -9 -9 -9 -9 -9 -9 -10 -10 -10 -10 -10 -10 -10 -10
-12 -11 -11 -11 -11 -11 -11 -11 -11 -10 -10 -10 -10 -10 -9 -8 -11 -11 -10 -10 -10 -10 -10 -10 -10 -10 -9 -9 -9 -9 -9 -9 -10 -9 -10 -10 -10 -10 -10 -10 -10 -11 -10 -10 -10
-12 -12 -12 -12 -11 -12 -11 -11 -11 -11 -11 -11 -10 -10 -8 -10 -11 -11 -11 -10 -11 -10 -10 -11 -10 -10 -10 -10 -10 -9 -9 -9 -10 -10 -10 -11 -8 -9 -10 -10 -10 -11 -10 -10 -10
-12 -12 -12 -12 -12 -12 -12 -11 -11 -12 -11 -11 -11 -10 -9 -11 -11 -11 -11 -11 -11 -11 -11 -11 -11 -10 -10 -10 -10 -10 -9 -9 -10 -11 -11 -12 -7 -10 -10 -10 -10 -11 -10 -10 -10
-13 -13 -12 -12 -12 -12 -12 -12 -12 -12 -11 -11 -11 -11 -10 -11 -11 -11 -11 -11 -11 -11 -11 -11 -11 -11 -11 -11 -10 -10 -10 -10 -9 -12 -11 -11 -8 -10 -10 -10 -10 -10 -11 -10 -10
-13 -13 -13 -13 -13 -13 -13 -13 -13 -12 -12 -11 -11 -11 -11 -11 -11 -11 -11 -12 -12 -12 -12 -12 -11 -11 -11 -11 -10 -11 -10 -10 -9 -11 -12 -11 -9 -9 -9 -9 -10 -11 -11 -10 -10
-14 -13 -13 -13 -13 -14 -14 -13 -13 -13 -12 -12 -12 -11 -11 -12 -11 -11 -11 -11 -11 -12 -12 -13 -12 -10 -11 -12 -12 -11 -11 -10 -10 -11 -13 -11 -10 -9 -10 -10 -10 -11 -11 -12 -11
-14 -14 -14 -14 -14 -14 -14 -14 -14 -13 -12 -12 -12 -11 -12 -13 -11 -12 -12 -12 -11 -11 -12 -12 -11 -11 -12 -13 -12 -12 -12 -11 -11 -12 -13 -12 -11 -10 -11 -10 -11 -11 -11 -12 -13
-14 -14 -14 -14 -14 -14 -15 -14 -14 -14 -13 -12 -12 -12 -12 -12 -12 -11 -13 -12 -12 -12 -12 -13 -11 -12 -13 -12 -12 -12 -12 -12 -12 -12 -12 -12 -10 -10 -10 -11 -11 -11 -11 -12 -13
-15 -15 -15 -15 -15 -15 -15 -15 -15 -15 -14 -12 -13 -12 -12 -13 -12 -13 -13 -13 -12 -12 -14 -12 -12 -13 -13 -12 -13 -13 -13 -14 -13 -13 -12 -12 -12 -9 -10 -11 -11 -12 -12 -13 -13
-15 -16 -15 -16 -16 -17 -17 -16 -16 -15 -15 -14 -13 -13 -13 -13 -13 -13 -13 -14 -13 -14 -15 -11 -12 -14 -13 -12 -14 -13 -14 -14 -14 -14 -14 -11 -14 -9 -10 -11 -11 -12 -13 -14 -13
-16 -16 -16 -17 -17 -17 -17 -17 -17 -17 -15 -14 -14 -15 -15 -14 -14 -13 -13 -13 -13 -14 -15 -13 -14 -14 -13 -14 -14 -14 -14 -14 -14 -14 -14 -10 -14 -12 -10 -10 -12 -12 -13 -14 -13
-17 -17 -17 -17 -17 -17 -17 -18 -18 -17 -15 -15 -15 -16 -16 -15 -14 -14 -14 -14 -14 -14 -14 -14 -13 -14 -14 -14 -13 -14 -15 -15 -15 -14 -13 -12 -14 -12 -10 -12 -12 -13 -13 -13 -13
-17 -17 -17 -17 -17 -18 -18 -18 -19 -16 -15 -15 -17 -18 -18 -17 -15 -15 -14 -15 -14 -15 -15 -14 -14 -13 -14 -15 -14 -15 -15 -16 -14 -14 -14 -14 -13 -11 -13 -13 -13 -13 -14 -14 -14
-18 -19 -18 -18 -19 -19 -19 -20 -18 -17 -17 -17 -17 -18 -18 -19 -19 -18 -17 -16 -16 -17 -18 -17 -16 -14 -14 -15 -17 -14 -16 -14 -17 -16 -16 -14 -13 -13 -13 -14 -14 -14 -13 -13 -12
-21 -19 -19 -21 -21 -22 -22 -20 -19 -20 -21 -22 -22 -21 -20 -20 -20 -21 -20 -19 -18 -19 -18 -18 -17 -16 -16 -17 -16 -16 -15 -16 -16 -16 -15 -15 -14 -14 -14 -14 -15 -14 -14 -13 -13
-23 -22 -21 -23 -23 -24 -24 -23 -22 -22 -23 -23 -23 -23 -23 -22 -22 -21 -21 -20 -20 -20 -19 -19 -18 -17 -17 -17 -17 -17 -16 -16 -16 -16 -16 -15 -15 -14 -15 -15 -15 -15 -14 -14 -14
-25 -25 -24 -25 -25 -25 -24 -24 -24 -24 -25 -25 -25 -25 -24 -23 -23 -22 -21 -21 -21 -20 -20 -20 -19 -19 -18 -18 -18 -18 -18 -16 -16 -15 -15 -16 -17 -15 -16 -16 -16 -16 -15 -15 -15
-25 -25 -25 -25 -25 -25 -26 -26 -26 -26 -26 -26 -25 -25 -24 -24 -23 -22 -22 -21 -21 -22 -21 -21 -21 -20 -19 -19 -18 -18 -17 -18 -17 -16 -15 -16 -16 -17 -16 -16 -16 -16 -16 -16 -15
-26 -25 -25 -26 -26 -26 -27 -27 -27 -26 -26 -26 -26 -25 -25 -25 -24 -24 -23 -23 -23 -23 -22 -22 -21 -21 -20 -20 -19 -20 -18 -18 -18 -17 -17 -17 -17 -17 -17 -17 -16 -16 -16 -16 -16
-26 -26 -27 -27 -26 -27 -27 -27 -27 -26 -26 -26 -26 -26 -26 -25 -25 -25 -24 -24 -24 -23 -23 -23 -22 -21 -21 -20 -21 -20 -20 -19 -18 -18 -18 -18 -19 -18 -18 -17 -18 -18 -18 -17 -17
-27 -27 -28 -27 -27 -27 -27 -27 -27 -26 -26 -26 -27 -27 -26 -26 -26 -26 -26 -25 -25 -24 -24 -24 -23 -23 -22 -22 -22 -21 -20 -20 -19 -19 -18 -19 -19 -19 -21 -20 -19 -19 -19 -18 -18
-28 -27 -27 -27 -27 -27 -27 -27 -27 -27 -27 -27 -27 -27 -27 -27 -27 -26 -26 -26 -26 -25 -25 -25 -24 -24 -23 -23 -23 -22 -22 -22 -21 -21 -21 -21 -19 -21 -21 -20 -20 -19 -20 -19 -19
Height
5819 5820 5822 5824 5826 5828 5829 5830 5832 5833 5834 5836 5837 5838 5839 5842 5842 5840 5841 5844 5842 5844 5844 5844 5842 5842 5842 5843 5842 5838 5837 5836 5842 5840 5841 5837 5834 5835 5834 5832 5831 5832 5833 5831 5833
5809 5811 5812 5814 5816 5818 5820 5821 5822 5824 5825 5826 5828 5829 5830 5832 5833 5832 5832 5833 5832 5832 5832 5832 5833 5832 5832 5833 5832 5828 5828 5829 5832 5832 5831 5830 5827 5828 5825 5826 5824 5825 5824 5824 5824
5798 5799 5801 5803 5805 5807 5809 5811 5811 5813 5816 5817 5818 5819 5820 5821 5825 5822 5825 5823 5822 5819 5819 5821 5820 5822 5823 5821 5821 5821 5817 5820 5821 5821 5822 5821 5821 5823 5820 5818 5816 5819 5814 5815 5816
5786 5788 5789 5791 5792 5794 5796 5798 5801 5801 5803 5805 5806 5809 5809 5810 5812 5813 5812 5813 5811 5809 5808 5809 5810 5811 5811 5811 5812 5809 5811 5810 5810 5809 5811 5814 5813 5809 5815 5814 5814 5810 5805 5805 5805
5772 5775 5777 5778 5780 5782 5784 5785 5788 5789 5789 5789 5793 5795 5797 5800 5805 5798 5799 5801 5801 5799 5797 5799 5799 5800 5800 5800 5801 5801 5803 5802 5801 5799 5803 5805 5804 5804 5802 5806 5808 5799 5797 5797 5796
5759 5761 5763 5765 5768 5769 5771 5772 5774 5777 5778 5779 5780 5782 5784 5787 5792 5789 5788 5790 5790 5789 5790 5789 5789 5789 5789 5791 5790 5792 5792 5792 5792 5795 5794 5793 5796 5791 5795 5797 5796 5790 5789 5788 5788
5748 5751 5752 5753 5756 5758 5759 5761 5762 5763 5766 5768 5769 5771 5774 5783 5778 5779 5781 5778 5781 5781 5780 5780 5779 5779 5780 5780 5782 5781 5780 5783 5786 5787 5784 5783 5781 5785 5787 5785 5784 5783 5781 5778 5777
5736 5739 5740 5741 5744 5746 5747 5749 5751 5753 5754 5756 5757 5759 5763 5770 5767 5768 5770 5772 5771 5769 5770 5770 5769 5770 5771 5771 5769 5769 5771 5776 5781 5775 5776 5773 5773 5779 5778 5775 5773 5773 5770 5770 5768
5722 5725 5729 5731 5732 5734 5735 5738 5738 5742 5744 5745 5748 5748 5754 5756 5757 5759 5760 5761 5758 5758 5759 5759 5761 5763 5759 5758 5761 5761 5764 5764 5766 5763 5764 5762 5765 5767 5766 5766 5763 5761 5759 5759 5760
5710 5712 5715 5718 5720 5721 5723 5724 5725 5729 5731 5734 5737 5739 5743 5742 5743 5750 5750 5748 5748 5749 5748 5750 5751 5751 5748 5750 5752 5752 5750 5752 5755 5757 5751 5752 5754 5754 5754 5753 5753 5750 5750 5747 5747
5697 5700 5702 5704 5705 5707 5708 5711 5713 5715 5718 5725 5726 5731 5731 5730 5732 5732 5733 5737 5738 5738 5739 5738 5739 5739 5740 5740 5742 5740 5738 5740 5743 5744 5737 5743 5743 5745 5744 5743 5743 5742 5742 5742 5736
5683 5686 5689 5690 5691 5693 5693 5694 5694 5699 5705 5713 5716 5716 5722 5719 5718 5721 5717 5720 5725 5728 5725 5724 5728 5732 5728 5727 5728 5726 5727 5730 5733 5734 5727 5732 5731 5735 5734 5734 5735 5735 5732 5731 5731
5666 5670 5673 5676 5677 5677 5677 5680 5679 5683 5688 5702 5703 5707 5706 5702 5709 5717 5705 5706 5708 5710 5707 5711 5727 5715 5710 5715 5715 5715 5716 5717 5717 5718 5716 5716 5719 5725 5728 5725 5725 5725 5726 5726 5723
5651 5654 5657 5659 5662 5661 5661 5664 5666 5669 5671 5689 5686 5694 5693 5691 5697 5697 5696 5696 5696 5695 5692 5697 5707 5701 5700 5706 5703 5703 5710 5703 5704 5703 5702 5703 5698 5717 5716 5716 5717 5716 5715 5714 5712
5635 5638 5641 5645 5646 5644 5645 5647 5651 5654 5658 5674 5668 5669 5671 5678 5682 5684 5685 5679 5687 5684 5674 5694 5690 5687 5690 5694 5691 5692 5696 5690 5690 5688 5689 5700 5682 5704 5705 5704 5706 5706 5705 5704 5704
5617 5622 5627 5629 5631 5626 5628 5630 5631 5636 5646 5661 5661 5652 5643 5655 5668 5667 5669 5666 5671 5666 5660 5678 5678 5674 5683 5682 5682 5683 5680 5679 5678 5679 5676 5690 5670 5690 5697 5695 5693 5694 5692 5695 5696
5598 5606 5614 5616 5616 5611 5613 5611 5612 5615 5637 5648 5650 5635 5626 5641 5648 5650 5648 5648 5653 5650 5653 5657 5668 5666 5665 5662 5673 5669 5668 5665 5665 5659 5660 5680 5661 5673 5687 5683 5681 5680 5678 5680 5681
5578 5587 5596 5600 5595 5590 5593 5593 5589 5606 5620 5625 5621 5615 5611 5623 5630 5634 5629 5625 5630 5632 5636 5635 5644 5662 5657 5649 5659 5658 5657 5653 5645 5648 5653 5661 5649 5662 5666 5664 5666 5665 5662 5664 5666
5560 5568 5579 5580 5575 5569 5572 5570 5577 5591 5600 5596 5596 5601 5606 5607 5607 5611 5611 5613 5616 5617 5619 5617 5616 5645 5640 5636 5635 5650 5635 5649 5636 5638 5634 5641 5645 5646 5650 5651 5650 5650 5649 5648 5651
5541 5552 5563 5559 5557 5552 5550 5557 5566 5574 5578 5575 5571 5579 5586 5593 5591 5590 5591 5593 5601 5604 5600 5606 5604 5620 5624 5617 5619 5621 5633 5627 5624 5621 5621 5626 5630 5629 5636 5637 5635 5637 5638 5635 5635
5525 5533 5548 5540 5539 5536 5532 5541 5552 5564 5558 5556 5561 5561 5568 5575 5578 5579 5580 5580 5583 5588 5589 5590 5592 5606 5606 5608 5611 5611 5613 5614 5613 5612 5608 5611 5614 5615 5620 5627 5626 5623 5625 5626 5623
5509 5519 5530 5525 5522 5525 5523 5531 5537 5544 5544 5541 5544 5549 5550 5560 5560 5565 5570 5566 5569 5572 5576 5578 5578 5577 5586 5597 5595 5596 5601 5604 5601 5604 5589 5596 5595 5600 5602 5610 5611 5611 5614 5617 5616
5495 5502 5511 5510 5503 5512 5519 5515 5515 5525 5530 5527 5533 5537 5538 5540 5544 5548 5549 5553 5554 5560 5563 5566 5564 5564 5573 5581 5579 5581 5582 5586 5585 5585 5589 5586 5586 5588 5590 5593 5595 5598 5604 5605 5606
5481 5484 5493 5491 5496 5497 5502 5508 5503 5512 5514 5517 5520 5525 5528 5525 5527 5530 5536 5533 5546 5546 5550 5550 5548 5551 5556 5561 5561 5561 5565 5569 5569 5575 5575 5579 5576 5576 5580 5579 5580 5583 5590 5591 5592
5468 5471 5477 5478 5482 5484 5489 5498 5499 5502 5500 5507 5511 5515 5514 5516 5519 5518 5525 5526 5533 5533 5538 5538 5537 5542 5542 5548 5546 5547 5552 5556 5557 5560 5557 5560 5557 5562 5566 5567 5571 5573 5576 5580 5580
5458 5461 5467 5470 5470 5477 5482 5487 5489 5491 5491 5498 5502 5505 5504 5508 5511 5511 5514 5515 5518 5522 5522 5523 5525 5529 5527 5530 5529 5530 5543 5546 5546 5546 5544 5544 5546 5556 5555 5557 5561 5564 5564 5566 5567
5445 5450 5455 5460 5466 5471 5475 5478 5480 5483 5487 5489 5493 5495 5495 5499 5502 5502 5504 5505 5507 5509 5512 5513 5517 5515 5511 5517 5515 5518 5531 5531 5530 5529 5530 5531 5539 5547 5547 5547 5552 5553 5554 5555 5557
Wind_Speed
50 49 49 48 48 48 48 48 47 46 46 47 46 45 43 43 42 42 44 48 50 46 48 44 46 44 43 41 40 42 45 43 37 36 33 33 42 37 42 44 43 40 38 42 36
52 52 52 51 52 51 51 51 50 51 50 50 49 49 49 47 44 46 45 49 50 56 55 50 49 51 49 48 47 48 48 47 41 40 39 39 44 43 45 44 43 43 43 42 41
58 58 58 57 58 58 57 58 56 55 55 55 56 54 53 52 51 51 48 48 50 54 59 51 49 47 49 48 45 45 50 45 45 41 41 43 44 43 45 47 47 42 49 45 42
65 64 64 64 64 63 63 64 62 60 70 71 61 61 60 59 55 54 55 50 47 49 44 42 43 44 42 41 41 45 42 43 44 43 40 36 40 47 42 43 44 48 51 49 46
70 68 68 66 66 68 68 66 66 63 59 57 61 61 59 62 54 56 57 51 46 44 41 44 42 46 46 46 44 44 40 42 44 45 39 36 38 41 43 40 39 48 49 49 49
58 59 59 59 59 59 60 61 60 59 58 57 55 54 54 52 49 48 50 48 46 44 43 43 40 42 46 44 45 41 40 40 41 39 40 39 34 41 39 37 37 42 48 50 49
57 57 57 56 57 56 55 56 56 55 54 54 53 53 52 43 45 46 45 51 45 44 42 39 41 41 40 41 42 44 43 40 37 34 38 39 43 38 38 40 43 43 47 50 50
55 56 55 54 54 55 55 55 56 54 52 52 52 53 51 44 45 44 45 45 43 41 41 39 42 41 41 43 43 45 44 40 32 36 37 39 42 36 37 40 43 42 45 47 49
53 52 53 53 52 52 53 54 53 53 54 52 50 49 47 46 43 43 41 42 44 43 42 42 41 41 43 45 45 43 40 41 40 35 37 41 42 39 40 39 40 41 43 46 48
55 54 54 54 53 53 54 54 54 54 55 51 48 49 46 47 47 45 46 47 47 48 48 46 46 46 49 48 47 45 46 43 40 36 39 40 41 40 41 41 39 41 37 44 47
57 58 58 58 56 55 56 59 60 60 57 55 54 51 49 49 49 53 54 52 52 51 52 52 52 52 50 51 50 50 51 50 46 41 41 40 40 41 40 41 42 43 42 41 47
63 63 64 64 62 62 60 62 65 65 64 59 58 59 54 56 57 56 59 59 54 51 53 56 54 51 51 52 54 55 55 54 50 45 44 43 45 44 44 45 42 43 47 45 41
68 66 65 65 63 61 61 63 64 64 62 57 57 57 57 62 59 54 60 59 58 56 58 55 46 51 55 54 55 53 54 51 52 47 48 49 55 50 46 47 46 46 44 39 40
70 69 68 68 64 64 65 64 64 64 64 64 62 57 54 56 56 55 57 57 60 60 55 56 49 49 49 50 50 51 46 46 48 48 53 52 58 48 49 47 43 43 40 38 38
74 71 69 68 67 65 66 67 65 66 64 63 63 63 61 59 58 58 57 60 58 56 58 54 54 49 48 47 44 47 42 44 46 47 52 46 53 44 44 46 42 40 37 34 35
70 70 67 67 65 66 65 63 68 67 65 62 62 67 71 68 63 65 64 65 63 65 65 60 55 57 54 50 47 44 45 47 48 49 55 48 56 46 44 45 40 36 38 40 43
69 69 67 63 66 69 70 71 71 73 70 66 66 70 74 75 77 76 73 71 69 71 71 65 60 57 57 58 55 51 48 51 51 56 60 50 58 51 47 46 44 45 50 48 45
72 71 67 68 73 71 70 70 73 76 74 73 68 71 71 71 79 79 82 77 73 70 69 70 69 63 60 58 55 46 47 50 62 58 57 50 58 60 47 47 45 43 48 43 42
78 71 70 66 69 71 71 73 76 78 78 77 76 72 70 65 61 63 65 70 67 52 47 49 58 57 62 53 43 53 50 52 50 50 51 51 55 48 45 41 42 42 46 49 47
67 69 67 60 61 65 67 73 76 70 66 66 66 67 69 64 62 58 62 60 51 43 44 44 54 39 42 47 45 52 48 47 49 53 54 55 58 57 52 42 42 45 48 49 50
58 60 59 55 57 59 63 66 63 59 55 57 56 55 57 59 55 55 59 61 65 58 55 51 54 56 55 48 40 45 47 50 49 53 61 59 54 60 57 44 44 51 49 50 52
48 51 50 52 56 58 61 59 53 48 42 46 46 46 54 53 54 56 59 59 64 58 46 53 59 44 51 49 48 54 52 48 45 54 50 62 58 44 43 49 41 41 43 46 44
58 56 55 55 58 56 52 48 47 41 39 46 45 50 49 55 57 60 57 57 58 59 56 55 57 63 58 50 50 54 50 58 56 54 53 37 50 42 35 39 39 43 44 43 41
59 60 55 49 45 41 40 43 42 34 38 42 43 41 49 45 45 56 56 56 55 47 53 60 57 49 54 55 55 50 51 54 63 62 61 32 41 37 35 34 37 37 35 35 52
47 47 38 38 36 33 38 37 34 34 45 41 38 44 49 41 45 44 52 54 58 60 49 52 65 60 52 48 62 64 66 65 63 54 54 45 20 25 40 50 42 41 45 50 47
38 39 32 29 26 27 31 31 39 26 26 40 40 36 45 40 41 48 51 55 42 46 52 51 48 44 56 63 66 65 45 53 60 60 56 43 36 24 39 49 40 40 49 51 49
38 37 35 34 32 33 30 26 36 38 33 33 40 42 47 42 42 41 42 45 49 56 54 50 50 34 30 46 56 61 63 62 65 70 69 67 62 55 42 50 54 44 40 40 39
Wind_Direction
259 259 260 261 262 262 261 260 261 261 261 262 261 261 260 265 265 268 275 280 280 275 272 280 281 279 276 273 270 271 275 279 283 271 269 260 263 256 265 271 276 281 284 287 288
261 261 261 262 264 264 264 264 264 265 266 266 267 268 268 266 264 267 275 276 279 276 274 275 279 279 279 277 275 272 275 280 276 271 268 263 263 269 272 273 275 281 281 280 284
261 263 264 265 266 266 267 267 265 267 268 270 271 270 270 271 268 270 277 279 276 280 270 273 277 277 276 274 273 272 275 275 275 272 268 273 272 268 270 278 278 281 279 278 280
264 266 266 267 267 267 268 268 270 270 272 273 270 271 269 271 271 276 276 278 279 282 270 279 281 277 274 273 271 270 271 275 274 273 273 274 272 271 269 270 276 277 278 283 287
264 265 266 266 264 266 268 267 269 269 273 267 267 269 266 266 271 276 277 275 278 277 276 269 272 272 273 272 270 270 270 268 271 274 276 272 271 277 272 274 268 270 274 280 286
262 262 263 264 265 266 266 267 267 269 268 270 269 270 269 268 272 273 274 276 274 274 275 273 269 267 269 272 272 273 270 271 270 277 281 278 272 268 272 274 266 264 273 279 282
263 264 266 266 268 267 267 268 268 268 269 269 271 272 269 275 273 273 275 274 274 274 272 269 269 269 269 272 273 271 273 272 280 282 276 274 273 273 276 272 270 265 270 275 278
265 265 265 266 267 268 268 268 269 268 268 267 269 270 269 274 274 275 273 272 271 270 269 266 269 270 273 270 270 271 274 280 278 273 274 272 280 274 273 274 273 273 272 273 274
261 262 263 263 264 266 268 268 266 267 267 267 269 270 274 273 269 269 268 269 270 268 266 267 269 271 271 270 271 276 279 272 271 271 270 269 276 279 277 275 279 278 275 277 275
264 264 265 266 268 268 268 267 267 266 266 266 268 271 270 271 271 269 266 265 266 268 269 270 271 269 268 272 277 275 273 272 272 271 269 272 276 277 278 284 283 284 281 281 283
262 263 265 267 268 269 271 272 271 271 271 270 272 269 270 272 271 271 268 267 264 266 271 272 269 271 275 277 275 275 275 272 272 277 277 278 275 276 281 279 281 281 282 281 285
263 263 264 266 267 269 270 270 270 270 271 272 272 275 272 273 273 275 275 273 271 268 269 269 270 277 273 271 272 272 272 271 270 274 276 273 270 270 270 274 276 277 286 286 284
262 262 265 268 266 265 267 270 269 272 271 272 273 275 273 272 273 273 276 277 275 273 271 268 275 269 269 271 274 274 277 278 279 278 273 274 268 266 271 273 274 281 281 283 281
261 260 264 265 263 266 267 268 266 267 272 279 273 271 273 274 276 276 275 276 274 276 279 273 271 272 271 272 272 269 274 274 275 272 271 271 274 272 273 271 272 274 280 284 283
262 261 262 262 263 264 265 264 264 267 271 280 279 278 276 278 278 277 274 273 273 276 272 272 272 272 271 275 272 277 272 270 267 267 269 271 267 270 275 273 273 273 275 276 286
257 260 261 261 261 264 262 269 268 267 267 270 274 278 279 279 279 277 273 272 271 272 272 272 273 273 276 275 273 274 265 265 268 272 261 275 266 277 272 278 280 274 264 275 273
252 253 256 259 274 270 270 275 271 268 272 271 274 276 274 278 282 280 278 276 273 273 274 274 267 271 272 269 270 268 267 270 268 269 271 278 272 282 274 280 281 276 272 275 271
269 275 267 271 277 276 275 270 265 277 278 279 273 269 268 274 277 277 275 275 275 274 271 270 267 269 275 273 272 264 265 261 268 269 277 272 270 284 278 270 272 270 270 271 270
278 275 278 276 273 271 269 266 271 280 279 273 267 262 262 264 264 263 260 264 267 273 268 272 272 268 263 262 253 265 247 270 263 267 265 269 274 274 276 273 262 264 270 272 269
272 275 277 270 267 266 266 269 272 271 269 265 265 263 262 259 255 247 248 248 236 235 242 248 251 245 258 257 247 255 256 248 253 258 261 268 276 278 269 261 269 274 267 264 268
266 269 273 268 266 265 267 272 274 272 274 270 266 263 259 258 253 247 246 246 245 237 241 240 252 253 251 244 243 244 255 253 252 251 262 267 268 274 255 260 276 270 265 266 267
266 268 269 269 268 270 272 278 277 272 262 256 254 249 248 241 243 245 239 241 240 246 246 250 242 258 238 235 252 250 239 235 247 264 248 269 259 257 251 263 271 260 267 262 264
270 270 271 269 267 273 273 266 262 255 247 247 244 244 248 245 240 238 234 235 237 247 245 248 251 249 250 244 241 232 238 233 238 245 256 254 272 266 261 248 247 252 256 257 268
271 271 270 264 263 263 262 255 252 251 247 249 246 244 249 252 246 241 242 242 243 249 241 243 251 244 250 246 248 254 234 243 233 238 251 268 261 240 246 234 237 234 243 251 250
269 269 258 252 255 258 257 252 239 264 252 246 247 245 247 248 253 254 246 250 242 238 244 245 248 249 245 246 253 257 254 251 247 244 239 240 264 272 263 259 266 272 260 260 263
251 253 246 254 253 258 257 251 228 217 241 243 244 251 258 250 260 262 259 257 242 240 247 251 249 266 254 258 263 256 244 240 239 238 240 245 241 253 281 276 277 275 275 273 270
247 253 255 256 251 250 250 245 234 233 237 243 247 248 255 262 258 260 264 270 267 260 256 250 247 247 252 252 255 256 261 265 263 265 271 276 273 287 277 268 270 264 267 268 273